Skip Page Navigation
NASA JPL Caltech
NASA Logo - Jet Propulsion Laboratory + View the NASA Portal
+ Center for Near-Earth Object Studies
JPL Home Earth Solar System Stars & Galaxies Technology
JPL Solar System Dynamics
BODIES ORBITS EPHEMERIDES TOOLS PHYSICAL DATA DISCOVERY FAQ SITE MAP
JPL Small-Body Database Browser
Search: [ help ]  
413125 (2001 XH5)
Classification: Main-belt Asteroid          SPK-ID: 2413125
Ephemeris | Orbit Diagram | Orbital Elements | Mission Design | Physical Parameters | Discovery Circumstances ]

[ show orbit diagram ]
Orbital Elements at Epoch 2459000.5 (2020-May-31.0) TDB
Reference: JPL 17 (heliocentric ecliptic J2000)
 Element Value Uncertainty (1-sigma)   Units 
e .1710435946875235 5.3873e-08  
a 2.202116217785421 9.291e-09 au
q 1.82545834397571 1.2122e-07 au
i 6.739021274413202 5.6134e-06 deg
node 230.0322977747155 4.2254e-05 deg
peri 139.7242154820138 4.5472e-05 deg
M 280.1853334746329 1.4915e-05 deg
tp 2459265.129942589864
(2021-Feb-19.62994259)
5.0037e-05 TDB
period 1193.599916903405
3.27
7.5539e-06
2.068e-08
d
yr
n .3016086000859983 1.9088e-09 deg/d
Q 2.578774091595133 1.088e-08 au
  Orbit Determination Parameters
   # obs. used (total)      312  
   data-arc span      6374 days (17.45 yr)  
   first obs. used      2001-11-09  
   last obs. used      2019-04-23  
   planetary ephem.      DE431  
   SB-pert. ephem.      SB431-N16  
   condition code      0  
   norm. resid. RMS      .58566  
   source      ORB  
   producer      Otto Matic  
   solution date      2019-Jul-13 15:51:58  

Additional Information
 Earth MOID = .831794 au 
 Jupiter MOID = 2.90583 au 
 T_jup = 3.636 
[ show covariance matrix ]

Ephemeris | Orbit Diagram | Orbital Elements | Mission Design | Physical Parameters | Discovery Circumstances ]

Physical Parameter Table
Parameter Symbol Value Units Sigma Reference Notes
absolute magnitude H 17.4   n/a MPO434519  

413125 (2001 XH5)          Discovered 2001-Dec-05 by NEAT at Haleakala
Reference: Last Updated: 2014-11-10
Ephemeris | Orbit Diagram | Orbital Elements | Mission Design | Physical Parameters | Discovery Circumstances ]
ABOUT SSD CREDITS/AWARDS PRIVACY/COPYRIGHT GLOSSARY LINKS
FirstGov 2020-Aug-04 17:54 UT
(server date/time)  
NASA Home Page
Site Manager:   Ryan S. Park
Webmaster  Alan B. Chamberlin